User: anonymous   Login
Location: Peebles
(55.6412°N, 3.1714°W)
Time: 07:13:51
(UTC+00:00)
Language:

Cosmos 1503 Rocket - Orbit

View from above orbital plane
View from above orbital plane
View from above satellite
View from above satellite

Ground track
Ground track

The orbit data is extracted from the following two-line orbital elements,

1 14402U 83103B   21336.88173738 -.00000033  00000-0 -22883-5 0  9992
2 14402  74.0427 143.6576 0027809 302.7120  57.1351 14.36035471995920
Epoch (UTC): 02 December 2021 21:09:42
Eccentricity: 0.0027809
inclination: 74.0427°
perigee height: 752 km
apogee height: 791 km
right ascension of ascending node: 143.6576°
argument of perigee: 302.7120°
revolutions per day: 14.36035471
mean anomaly at epoch: 57.1351°
orbit number at epoch: 99592

The dashed part of the orbit path shows where the satellite is in the earth's shadow,  

DLR